Probability
0 0 0 0 0 0 0 0 0 0 0 3 3 3 13 13 16 13 29 29 32 29 39 58 58 58 65 65 65 65 65 65 58 61 65 58 48 39 35 35 32 35 35 42
0 0 0 0 0 0 0 0 0 0 0 3 3 3 13 16 16 13 29 29 35 39 48 52 52 48 52 55 55 58 55 52 55 55 58 52 35 32 32 35 19 29 29 26
0 0 0 0 0 0 0 0 0 0 0 0 0 0 3 16 13 26 32 29 29 32 35 35 42 42 35 35 45 48 52 48 58 58 45 32 35 26 23 23 19 26 29 26
0 0 0 0 0 0 0 0 0 0 0 0 0 0 0 10 13 16 29 19 29 29 29 26 39 39 39 39 39 42 52 52 48 45 39 35 32 23 19 19 13 23 19 19
0 0 0 0 0 0 0 0 0 0 0 0 0 0 0 6 19 16 26 29 29 29 19 29 29 35 35 39 39 39 45 45 45 39 45 35 26 23 23 16 6 10 13 10
0 0 0 0 0 0 0 0 0 0 0 0 0 0 0 10 13 32 32 32 26 19 19 26 23 29 32 29 32 35 35 35 32 35 29 23 13 13 10 6 6 6 6 6
0 0 0 0 0 0 0 0 0 0 0 0 0 0 3 10 13 23 32 29 26 23 23 23 26 29 23 23 23 32 29 29 26 26 16 10 10 10 6 6 6 6 3 3
0 0 0 0 0 0 0 0 0 0 0 0 0 0 6 23 29 23 26 32 29 16 16 16 16 19 16 16 16 19 26 23 16 16 10 10 10 6 6 6 6 3 0 0
0 0 0 0 0 0 0 0 0 0 0 0 0 0 3 13 19 16 19 13 13 13 13 10 10 10 13 16 16 16 13 6 3 3 6 6 3 3 3 6 3 0 0 0
0 0 0 0 0 0 0 0 0 0 0 0 0 0 3 3 10 16 13 13 6 10 10 6 3 6 6 3 10 10 3 3 3 3 3 3 3 3 3 0 0 0 0 0
0 0 0 0 0 0 0 0 0 0 0 0 0 0 0 3 3 13 16 13 6 6 6 0 0 0 0 0 0 0 3 3 3 3 3 3 3 3 0 0 0 0 0 0
0 0 0 0 0 0 0 0 0 0 0 0 0 0 0 3 6 13 10 3 3 0 0 0 0 0 0 0 0 0 3 3 3 3 3 3 0 0 0 0 0 0 0 0
0 0 0 0 0 0 0 0 0 0 0 0 0 0 6 13 13 6 6 3 0 0 0 0 0 0 0 0 0 0 0 3 3 3 0 0 0 0 0 0 0 0 0 0
0 0 0 0 0 0 0 0 0 0 0 0 0 0 0 3 6 3 3 3 0 0 0 0 0 0 0 0 0 0 0 0 0 0 0 0 0 0 0 0 0 0 0 0
0 0 0 0 0 0 0 0 0 0 0 0 0 0 0 0 13 3 3 0 0 0 0 0 0 0 0 0 0 0 0 0 0 0 0 0 0 0 0 0 0 0 0 0
3 0 0 0 0 0 0 0 0 0 0 0 3 0 3 13 3 6 3 0 0 0 0 0 0 0 0 0 0 0 0 0 0 0 0 0 0 0 0 0 0 0 0 0
0 3 0 0 0 0 0 0 0 0 0 0 0 3 10 10 6 6 3 0 0 0 0 0 0 0 0 0 0 0 0 0 0 0 0 0 0 0 0 0 0 0 0 0
3 13 0 0 0 0 0 0 0 0 3 10 6 10 6 10 6 6 3 0 0 0 0 0 0 0 0 0 0 0 0 0 0 0 0 0 0 0 0 0 0 0 0 0
0 0 0 0 0 0 0 0 0 0 6 6 0 6 3 3 6 3 6 3 0 0 0 0 0 0 0 0 0 0 0 0 0 0 0 0 0 0 0 0 0 0 0 0
0 0 0 0 0 0 0 0 0 0 3 0 3 3 3 0 0 3 3 0 0 0 0 0 0 0 0 0 0 0 0 0 0 0 0 0 0 0 0 0 0 0 0 0
0 0 0 0 0 0 0 0 0 0 6 3 3 3 3 3 0 3 0 0 0 0 0 0 0 0 0 0 0 0 0 0 0 0 0 0 0 0 0 0 0 0 0 0
0 0 0 0 0 3 0 0 6 39 23 3 3 3 6 3 0 0 0 0 0 0 0 0 0 0 0 0 0 0 0 0 0 0 0 0 0 0 0 0 0 0 0 0
0 0 3 10 13 29 29 23 26 23 16 3 3 3 3 0 0 0 0 0 0 0 0 0 0 0 0 0 0 0 0 0 0 0 0 0 0 0 0 0 0 0 0 0
0 0 0 6 6 10 10 3 6 10 6 3 3 3 3 0 0 0 0 0 0 0 0 0 0 0 0 0 0 0 0 0 0 0 0 0 0 0 0 0 0 0 0 0
0 0 0 16 10 3 3 3 3 6 3 3 3 3 3 0 0 0 0 0 0 0 0 0 0 0 0 0 0 0 0 0 0 0 0 0 0 0 0 0 0 0 0 0
0 0 0 16 19 10 10 3 6 6 3 3 3 3 3 0 0 0 0 0 0 0 0 0 0 0 0 0 0 0 0 0 0 0 0 0 0 0 0 0 0 0 0 0
Height
5804 5807 5808 5810 5812 5813 5814 5815 5816 5818 5816 5811 5810 5809 5807 5807 5805 5803 5803 5802 5802 5802 5802 5803 5804 5805 5807 5808 5809 5810 5810 5812 5813 5815 5816 5816 5816 5817 5818 5819 5820 5822 5822 5822
5803 5805 5806 5808 5808 5808 5809 5810 5812 5812 5810 5807 5805 5803 5802 5800 5799 5798 5797 5795 5796 5795 5795 5796 5798 5799 5800 5801 5802 5803 5804 5805 5807 5808 5810 5811 5811 5811 5812 5814 5815 5816 5817 5817
5801 5804 5804 5803 5804 5805 5805 5807 5807 5806 5804 5802 5801 5799 5797 5794 5793 5792 5790 5790 5789 5790 5790 5790 5791 5792 5793 5794 5796 5797 5798 5799 5800 5802 5803 5804 5805 5806 5807 5808 5810 5811 5811 5812
5799 5801 5800 5800 5801 5801 5802 5802 5801 5800 5799 5798 5797 5794 5793 5789 5788 5786 5785 5784 5783 5784 5784 5784 5785 5786 5786 5787 5788 5790 5791 5793 5794 5796 5797 5798 5799 5800 5800 5801 5802 5803 5804 5805
5796 5797 5797 5797 5798 5798 5797 5797 5796 5795 5793 5792 5792 5790 5789 5784 5782 5781 5780 5778 5778 5778 5777 5777 5778 5779 5780 5781 5782 5783 5785 5786 5788 5790 5791 5793 5793 5794 5795 5795 5796 5797 5798 5799
5792 5794 5794 5794 5794 5793 5793 5792 5791 5790 5789 5788 5786 5785 5784 5779 5778 5777 5775 5774 5773 5773 5772 5772 5772 5773 5773 5774 5775 5777 5778 5780 5782 5783 5785 5787 5787 5788 5789 5789 5790 5790 5791 5792
5789 5790 5790 5790 5790 5790 5789 5789 5788 5787 5784 5782 5781 5779 5778 5774 5774 5773 5771 5770 5769 5768 5767 5767 5767 5768 5768 5769 5769 5771 5772 5774 5776 5777 5779 5780 5781 5782 5782 5783 5783 5784 5785 5786
5787 5787 5786 5786 5787 5787 5786 5786 5786 5784 5782 5779 5776 5774 5772 5770 5769 5768 5766 5765 5764 5764 5763 5763 5763 5763 5763 5763 5764 5765 5767 5768 5770 5771 5772 5773 5774 5775 5776 5776 5777 5777 5778 5779
5784 5784 5783 5783 5784 5784 5783 5783 5783 5780 5778 5777 5774 5771 5767 5765 5764 5763 5762 5760 5759 5759 5759 5758 5758 5758 5758 5758 5759 5759 5761 5762 5763 5764 5765 5766 5767 5768 5769 5769 5770 5771 5771 5772
5781 5781 5781 5781 5782 5781 5781 5780 5779 5777 5775 5773 5772 5768 5765 5761 5758 5758 5757 5756 5755 5754 5753 5753 5753 5753 5753 5753 5753 5754 5754 5756 5756 5757 5758 5759 5760 5761 5762 5763 5764 5764 5765 5765
5777 5778 5779 5779 5779 5778 5777 5776 5774 5773 5772 5770 5768 5767 5761 5759 5757 5755 5754 5752 5751 5750 5748 5748 5748 5747 5747 5747 5747 5747 5748 5749 5750 5750 5751 5752 5753 5754 5755 5756 5757 5757 5758 5759
5773 5774 5774 5775 5774 5773 5773 5773 5772 5771 5769 5767 5765 5765 5758 5755 5752 5751 5750 5748 5747 5745 5744 5743 5743 5742 5742 5742 5742 5742 5742 5743 5743 5744 5745 5746 5746 5747 5748 5749 5750 5750 5751 5752
5770 5771 5771 5771 5771 5769 5768 5768 5768 5767 5766 5764 5762 5761 5754 5752 5748 5747 5746 5744 5742 5741 5739 5739 5738 5737 5736 5736 5736 5736 5737 5737 5737 5738 5739 5739 5740 5741 5741 5742 5743 5744 5744 5745
5767 5767 5768 5767 5765 5764 5764 5765 5765 5764 5762 5760 5758 5755 5751 5749 5746 5744 5742 5740 5738 5736 5735 5734 5733 5732 5731 5731 5731 5731 5731 5731 5732 5732 5732 5733 5734 5734 5735 5736 5736 5737 5738 5738
5763 5764 5764 5764 5763 5763 5763 5763 5762 5760 5758 5756 5754 5751 5748 5746 5743 5741 5738 5736 5734 5732 5731 5729 5728 5727 5726 5726 5726 5726 5726 5726 5725 5725 5726 5726 5727 5728 5729 5729 5730 5731 5731 5731
5759 5761 5761 5761 5761 5760 5760 5760 5759 5757 5755 5753 5751 5748 5744 5742 5740 5738 5735 5732 5730 5728 5726 5724 5723 5722 5721 5721 5721 5721 5721 5720 5720 5720 5720 5721 5721 5722 5723 5723 5724 5724 5725 5725
5756 5757 5758 5758 5758 5757 5758 5757 5755 5754 5752 5750 5747 5745 5741 5739 5736 5734 5731 5729 5726 5724 5722 5720 5719 5718 5717 5716 5716 5716 5715 5715 5715 5715 5715 5716 5716 5717 5717 5718 5718 5719 5719 5719
5753 5753 5755 5755 5756 5755 5756 5753 5752 5750 5748 5746 5743 5741 5738 5735 5733 5730 5727 5725 5722 5720 5718 5716 5715 5714 5713 5712 5711 5711 5710 5710 5710 5711 5711 5711 5711 5711 5712 5712 5713 5713 5713 5714
5751 5751 5752 5752 5752 5752 5751 5749 5748 5747 5744 5742 5740 5737 5735 5732 5729 5726 5724 5721 5719 5716 5714 5712 5711 5710 5709 5708 5707 5706 5706 5706 5706 5706 5706 5707 5707 5707 5707 5707 5707 5708 5708 5708
5748 5749 5750 5750 5749 5748 5749 5747 5745 5745 5741 5738 5736 5734 5731 5729 5727 5724 5720 5717 5715 5712 5710 5709 5707 5706 5705 5704 5703 5703 5702 5702 5702 5703 5703 5703 5703 5703 5703 5703 5703 5703 5703 5704
5745 5746 5747 5747 5746 5745 5745 5744 5744 5743 5741 5736 5733 5731 5729 5726 5724 5721 5717 5714 5712 5709 5707 5706 5704 5703 5702 5701 5701 5700 5700 5700 5699 5699 5699 5699 5699 5699 5699 5699 5699 5699 5699 5700
5742 5743 5744 5744 5744 5745 5743 5742 5741 5740 5737 5734 5732 5729 5726 5723 5721 5717 5715 5712 5709 5707 5705 5703 5702 5700 5700 5699 5698 5697 5697 5697 5697 5696 5696 5696 5696 5696 5696 5696 5695 5696 5696 5695
5739 5740 5741 5742 5743 5741 5740 5739 5738 5736 5734 5732 5730 5727 5724 5721 5718 5715 5713 5710 5707 5705 5703 5701 5700 5699 5697 5697 5696 5695 5695 5694 5694 5694 5694 5693 5693 5693 5693 5693 5693 5692 5692 5692
5736 5737 5738 5738 5738 5738 5738 5737 5736 5734 5732 5730 5728 5725 5722 5720 5717 5714 5711 5709 5706 5704 5702 5700 5699 5697 5696 5695 5694 5693 5693 5692 5692 5692 5691 5691 5691 5691 5690 5690 5690 5690 5689 5689
5733 5734 5735 5736 5737 5736 5736 5735 5734 5732 5731 5728 5726 5724 5721 5718 5716 5713 5710 5708 5705 5703 5701 5700 5698 5697 5695 5694 5693 5692 5691 5691 5690 5690 5690 5689 5689 5689 5689 5688 5688 5687 5687 5687
5730 5732 5734 5735 5736 5735 5735 5734 5732 5731 5729 5727 5725 5723 5720 5718 5715 5713 5710 5707 5705 5703 5701 5699 5698 5696 5695 5694 5693 5692 5691 5690 5690 5689 5688 5688 5688 5688 5687 5687 5687 5686 5686 5685
Wind_Speed
8 8 7 5 9 12 13 14 15 14 18 22 21 21 22 24 24 25 27 28 28 29 30 31 31 32 33 34 35 35 35 34 33 33 32 30 29 28 27 27 26 26 25 24
7 7 7 11 15 16 15 14 13 14 19 23 23 22 22 23 24 25 26 27 28 28 28 30 31 31 33 34 35 36 36 35 34 34 33 32 30 29 27 26 27 27 26 26
8 7 12 15 14 13 12 12 14 15 18 20 21 21 21 23 23 25 25 25 26 26 27 28 30 31 33 34 35 37 36 35 34 33 32 32 31 30 29 28 29 29 28 28
11 12 15 14 12 12 12 13 16 16 17 18 19 20 20 23 23 23 23 23 24 23 26 28 29 31 32 33 34 35 35 34 34 33 33 33 32 31 30 29 29 28 28 28
9 11 13 12 11 13 13 14 15 16 17 17 18 20 19 22 22 22 21 21 22 22 25 26 28 29 31 31 32 34 34 33 33 32 33 32 32 32 31 30 29 29 28 29
9 10 11 11 12 13 13 13 14 14 16 18 17 20 20 23 23 22 21 21 21 22 24 24 25 26 28 28 30 31 31 31 32 32 33 33 32 31 31 30 30 28 29 29
7 10 12 13 12 12 12 12 13 15 18 19 18 18 18 19 19 21 22 22 21 21 22 22 24 24 26 27 27 28 30 31 31 32 33 33 33 32 31 31 30 29 29 29
9 12 13 13 12 12 12 11 14 17 18 20 20 18 18 20 20 20 22 22 22 22 22 22 24 24 25 27 28 29 29 31 31 32 32 32 32 32 30 30 30 30 30 30
11 12 12 13 11 12 12 12 13 17 17 17 18 19 19 18 20 20 21 22 22 23 23 23 23 24 25 26 27 28 29 30 31 31 32 32 31 31 30 29 29 29 29 28
15 14 12 12 11 12 12 12 14 14 16 17 17 19 22 20 19 19 21 22 23 24 23 23 24 25 25 26 27 28 29 30 31 31 31 31 31 30 30 29 28 28 27 27
15 15 12 11 11 12 12 13 14 14 15 17 19 21 23 23 23 21 21 21 22 22 22 23 24 25 25 26 26 28 29 29 30 30 30 30 30 29 29 29 28 28 28 28
15 15 14 13 14 14 13 12 13 15 16 17 20 23 23 24 23 21 20 21 22 22 22 23 24 24 25 25 26 26 27 28 28 28 29 29 29 29 29 29 29 29 29 29
15 15 14 13 14 14 14 11 11 14 16 16 19 22 21 22 20 19 20 21 22 22 21 21 21 23 24 25 25 25 25 26 26 26 27 27 27 27 27 28 28 28 28 28
15 15 15 14 13 13 10 10 11 14 16 18 19 20 22 22 21 21 22 22 22 21 21 20 19 20 21 22 23 23 24 25 26 26 26 26 26 26 26 26 26 26 27 27
16 15 15 14 13 12 12 12 14 16 17 19 19 19 21 20 20 21 22 21 21 21 21 20 20 20 20 20 20 22 23 23 22 23 24 24 24 24 25 24 24 25 26 26
15 15 14 13 12 12 12 13 15 15 16 18 19 20 20 21 21 22 21 20 20 20 20 20 19 19 19 19 19 20 20 21 20 19 19 20 22 22 22 23 23 23 23 23
16 15 13 12 11 11 12 13 14 15 17 18 19 19 20 20 21 21 20 20 20 19 18 17 17 17 17 17 17 18 19 19 19 18 18 19 19 20 20 21 22 23 23 23
15 13 12 10 10 11 11 11 13 15 16 17 17 18 19 19 19 19 19 19 19 18 17 17 17 17 17 17 17 18 18 18 17 17 18 18 19 19 20 20 21 21 21 21
14 13 12 11 10 10 11 13 13 15 16 16 16 17 18 18 19 19 18 18 18 17 17 17 17 17 17 17 17 16 15 15 15 15 15 15 16 16 17 18 19 20 20 20
13 13 13 12 11 12 11 14 15 15 16 16 16 17 17 17 18 18 18 17 17 17 16 15 14 14 14 14 13 13 13 13 13 14 13 13 13 14 14 15 16 17 17 18
13 12 13 13 12 13 13 13 14 14 15 16 16 16 16 16 17 17 17 16 15 15 15 14 13 12 12 12 12 12 11 11 11 11 11 12 12 12 13 13 14 14 14 15
13 13 13 12 12 13 12 13 14 14 15 15 15 15 15 16 16 16 16 15 14 13 12 11 11 10 10 11 11 11 11 10 10 10 10 10 11 11 11 12 12 13 13 14
13 13 13 13 12 11 12 13 13 14 14 14 14 15 14 14 14 14 14 13 12 11 10 10 9 8 8 8 9 9 9 9 9 9 9 10 10 10 10 11 11 12 12 13
14 14 13 12 11 11 12 11 12 12 13 13 13 13 13 13 13 13 12 12 11 10 9 9 8 7 6 6 6 6 7 7 7 8 8 8 9 9 9 9 9 10 10 10
13 12 11 10 10 9 10 10 11 11 12 12 12 12 12 12 12 12 12 11 10 9 8 8 7 6 6 6 6 5 5 5 6 6 7 7 7 7 7 7 7 8 8 9
12 10 9 8 8 9 9 9 9 10 10 10 11 11 11 11 11 11 11 10 9 8 8 8 7 6 6 6 5 5 5 5 5 5 5 5 5 5 5 6 6 7 7 7
Wind_Direction
243 249 248 260 256 249 243 243 248 256 262 267 274 276 269 270 270 272 270 267 262 258 257 255 253 252 252 252 252 253 254 255 256 260 263 266 266 268 270 272 274 271 269 265
239 260 250 244 247 253 256 257 262 263 260 265 273 274 272 271 271 271 267 264 263 259 259 258 257 254 253 253 253 253 254 255 257 258 262 267 267 271 272 270 271 271 268 269
236 253 252 251 259 266 267 266 264 263 266 271 279 281 281 272 271 274 271 269 267 261 258 256 257 256 255 254 253 253 254 256 258 259 262 264 268 271 272 270 270 270 269 270
236 241 256 263 265 267 269 270 266 265 269 274 274 274 275 273 274 277 272 270 272 264 260 258 257 256 256 256 255 253 253 255 257 259 261 265 269 271 273 273 274 272 270 272
233 245 256 263 266 266 263 265 270 274 275 274 272 271 276 275 274 276 272 269 270 269 266 262 260 258 255 255 256 254 254 254 256 258 258 262 266 270 272 273 274 273 271 272
230 250 261 262 263 274 277 278 285 287 283 277 271 266 266 271 280 279 276 273 274 273 268 264 261 259 256 254 253 252 253 253 255 257 259 262 264 268 268 270 272 271 270 271
252 257 262 266 272 281 282 286 292 292 292 288 280 272 269 268 278 281 278 279 278 275 271 267 264 261 257 254 255 254 254 254 255 258 260 263 265 266 267 268 270 269 268 268
259 267 262 266 274 279 280 282 285 288 289 296 295 289 279 269 275 278 279 278 278 279 274 271 267 262 259 257 256 255 255 255 257 259 260 262 264 265 266 268 269 268 267 267
244 257 261 268 278 281 283 280 282 282 286 289 293 294 288 281 279 283 283 280 280 281 278 274 268 264 262 260 259 257 256 258 260 260 260 261 262 264 266 267 267 267 267 265
242 253 257 261 274 288 286 282 277 277 286 289 285 287 289 286 287 288 290 283 282 282 277 273 269 266 263 262 260 260 259 260 261 261 261 262 263 264 265 265 266 266 266 267
248 250 247 257 264 269 276 281 280 281 281 288 291 292 294 295 294 292 293 292 287 284 278 272 270 269 266 265 263 260 262 262 262 262 263 264 265 266 265 266 266 266 266 267
250 248 245 246 255 260 260 267 279 285 286 285 289 293 294 296 294 294 295 294 292 288 281 276 273 270 268 266 264 262 264 264 263 263 264 265 266 266 265 264 267 266 266 267
250 249 247 248 253 258 263 262 274 282 288 292 291 293 293 300 298 301 300 298 294 292 285 282 277 271 269 267 264 264 265 264 264 265 263 263 265 265 264 264 265 267 268 268
249 249 249 259 273 279 289 289 289 287 287 290 291 292 293 298 301 302 303 301 297 293 290 286 281 277 274 271 269 268 268 267 267 267 266 265 264 263 263 263 264 266 266 266
249 250 253 263 273 283 290 291 287 287 289 292 297 294 291 298 306 307 306 304 299 293 291 287 284 280 277 276 274 273 271 271 269 268 266 264 262 263 262 262 263 266 267 265
251 252 255 262 271 276 282 287 288 288 290 292 294 296 301 306 306 306 307 305 299 296 294 288 284 280 278 275 274 273 273 274 271 268 266 267 266 265 264 265 266 267 268 267
253 254 257 261 268 275 278 283 288 291 294 295 298 302 305 305 304 304 306 306 305 301 297 293 288 285 282 279 277 275 275 273 273 273 273 274 272 268 267 267 268 269 270 271
259 260 258 266 271 277 279 280 285 295 298 300 302 305 308 308 309 307 307 306 303 302 298 294 291 289 285 283 281 278 276 275 278 278 277 276 274 270 268 268 269 270 271 275
258 261 261 268 271 276 287 292 301 304 305 306 308 309 310 311 312 313 313 311 307 303 300 295 290 287 286 286 285 282 282 281 281 282 282 278 277 273 273 274 274 275 276 278
253 257 258 261 269 277 288 296 304 304 306 308 313 313 313 315 316 318 318 315 311 306 302 300 294 290 289 290 288 286 286 285 285 283 282 281 279 279 279 280 280 280 279 281
251 257 259 262 270 280 288 296 300 303 307 312 316 317 317 319 321 321 320 318 315 310 306 303 298 295 292 292 292 289 288 287 286 282 280 282 281 282 283 283 283 282 282 282
247 252 258 266 268 274 287 295 299 303 307 312 315 319 320 321 323 323 325 323 319 315 311 306 303 300 297 295 293 291 290 288 287 287 284 284 285 285 286 284 283 283 284 284
240 246 250 259 268 280 288 292 297 303 310 315 319 322 324 325 326 327 330 330 327 323 319 316 313 308 304 302 300 298 294 291 290 289 289 287 292 291 289 286 286 287 286 286
237 241 250 259 271 281 289 293 300 306 314 319 324 327 330 331 331 334 337 336 336 335 332 327 323 319 318 317 316 310 298 288 287 290 291 294 296 295 294 293 295 294 292 291
228 237 243 257 279 288 293 298 303 310 315 321 328 331 335 336 338 342 344 345 346 345 344 343 339 341 337 331 324 316 312 308 302 299 299 299 301 301 301 301 302 304 304 304
228 236 241 253 270 284 294 301 307 312 319 325 331 336 342 345 346 352 356 356 355 354 354 356 356 358 355 349 348 346 340 334 328 318 311 309 309 311 315 316 317 317 319 321